Showing default

COSMOS 2534 (GLONASS), 44299

Orbit data source: Space-Track

COSMOS 2534 (GLONASS), 44299 is a Commonwealth of Independent States-origin payload satellite in MEO that was launched on Mon, 27 May 2019 UTC via a SOYUZ-2-1B launch vehicle from the Plesetsk Missile And Space Complex (PKMTR). Payload-class satellites include a variety of spacecraft equipped with specific instruments for various scientific and technological missions. These include communications satellites like Starlink; space stations such as the ISS; scientific satellites like the Hubble; Earth observation satellites from companies like Planet Labs, Umbra, and HawkEye 360; GPS; miniature CubeSats for education and research; and military/defense satellites.

Loading next visibility...
Identifier
44299, 2019-030A
Orbit
MEO
Last TLE update
7 hours ago
Origin
Manufacturer
Resehetnev ISS
Mission
Operational Defense Navigation
Bus & Motor
URAGAN, Unknown motor
Mass
1,450 kg wet, ~1,200 kg dry
Launch date (UTC)
2019-05-27 (6 years ago)
Launch vehicle
SOYUZ-2-1B
Launch site
Plesetsk Missile And Space Complex (PKMTR)
Object type
Payload
Rocket body
Debris
Shape & HBR
Cyl + 1 Ant + 2 Pan, 7.8 m
Radar Cross Section
8.467 m², Large (>1 m²)

Expand to show TLE details & history

TLE from 7 hours ago
0 COSMOS 2534 (GLONASS)
1 44299U 19030A   25186.44658830  .00000110  00000-0  00000+0 0  9992
2 44299  64.3673 204.2925 0013538 276.7277 254.3211  2.13102488 47526
Epoch: 2025-07-05T10:43Z
TLE epoch observation values (Epoch: 2025-07-05T10:43:05.229Z)
Latitude
8.20793°
Longitude
-64.12531°
Altitude
19,139.126 km
Speed
3.952 km/s
True Right ascension
01h 21m 19s
True Declination
8° 11' 40"
Sunlit
Object was in daylight at epoch
Visualization orbit readout
Latitude
33.99104°
Longitude
138.69563°
Altitude
19,150.67 km
Speed
3.951 km/s
Apparent Right ascension
15h 23m 23s
Apparent Declination
22° 10' 41"
Sunlit
Object is in daylight
Visualization observer readout
Local Sidereal Time
05:44:53
Azimuth
34.705° NE
Elevation
-19.689°
Doppler factor
1
Orbital elements
Apogee altitude
19,164.018 km
Perigee altitude
19,094.953 km
Semi-major axis
25,507.623 km
Eccentricity
0.00135
Inclination
64.3673°
RAAN
204.2925°
Arg. of periapsis
276.7277°
True anomaly
Unknown
Mean anomaly
254.3211°
Eccentric anomaly
Unknown
Mean motion
0.53277 °/min
Orbital period
675.72 mins
BSTAR
0
Loading maneuver chart data...
Loading SW <> Apogee altitude chart data...
Loading historical data...
Loading historical data...
Loading historical data...
Loading historical data...
Loading historical data...
Loading historical data...
Loading historical data...
Other satellites on launch #30 in the year 2019 (2019-05-27 UTC)

COSMOS 2534 (GLONASS) Visibility forecast

Observer location: undefined°, undefined°

Span
Click to sort rows by Start time (UTC) header in descending order
Start Az.
Max El. time (UTC)
Max El. Az.
Max El.
End time (UTC)
End Az.
364 mins2025-07-06 03:16:27.253Z214.75° SW2025-07-06 05:52:27.253Z319.971° NNW41.717°2025-07-06 09:20:27.253Z104.475° ESE
|